Total_Precipitation_Accumulation
0.73 0.80 0.87 0.88 0.86 0.88 0.91 0.92 0.94 0.97 0.90 0.76 0.68 0.60 0.53 0.48 0.53 0.38 0.29 0.34 0.30 0.26 0.25 0.24 0.24 0.25 0.27 0.29 0.31 0.34 0.36 0.36 0.37 0.40 0.46 0.54 0.63 0.72
0.53 0.59 0.68 0.74 0.78 0.82 0.85 0.83 0.76 0.75 0.78 0.69 0.61 0.55 0.50 0.43 0.43 0.29 0.26 0.29 0.23 0.21 0.21 0.20 0.20 0.19 0.20 0.22 0.26 0.29 0.29 0.29 0.30 0.31 0.33 0.37 0.45 0.54
0.51 0.54 0.60 0.63 0.67 0.68 0.67 0.68 0.70 0.71 0.75 0.72 0.62 0.54 0.48 0.42 0.35 0.28 0.25 0.24 0.22 0.21 0.21 0.19 0.17 0.16 0.17 0.20 0.21 0.22 0.22 0.22 0.23 0.24 0.26 0.29 0.31 0.36
0.42 0.42 0.46 0.48 0.51 0.52 0.53 0.54 0.56 0.59 0.62 0.64 0.58 0.48 0.41 0.34 0.29 0.27 0.21 0.17 0.18 0.17 0.17 0.16 0.16 0.16 0.16 0.15 0.14 0.13 0.12 0.12 0.14 0.16 0.20 0.24 0.27 0.29
0.32 0.30 0.31 0.32 0.34 0.34 0.35 0.36 0.36 0.37 0.40 0.43 0.41 0.35 0.30 0.26 0.27 0.25 0.22 0.24 0.16 0.15 0.14 0.13 0.12 0.11 0.10 0.08 0.08 0.08 0.07 0.06 0.06 0.07 0.09 0.13 0.16 0.19
0.23 0.20 0.20 0.20 0.22 0.25 0.25 0.26 0.28 0.30 0.32 0.34 0.31 0.28 0.24 0.21 0.29 0.29 0.24 0.23 0.19 0.12 0.12 0.11 0.09 0.07 0.06 0.06 0.06 0.05 0.05 0.04 0.04 0.05 0.05 0.05 0.06 0.07
0.16 0.15 0.15 0.18 0.19 0.20 0.20 0.22 0.27 0.30 0.30 0.30 0.27 0.24 0.21 0.25 0.29 0.28 0.25 0.21 0.17 0.14 0.19 0.20 0.21 0.22 0.22 0.16 0.10 0.06 0.04 0.03 0.03 0.03 0.03 0.04 0.04 0.04
0.15 0.15 0.15 0.15 0.15 0.15 0.17 0.21 0.28 0.29 0.27 0.28 0.27 0.28 0.27 0.29 0.31 0.29 0.29 0.31 0.31 0.24 0.28 0.26 0.25 0.28 0.28 0.27 0.18 0.10 0.06 0.05 0.04 0.03 0.02 0.02 0.03 0.04
0.14 0.15 0.13 0.11 0.13 0.14 0.14 0.15 0.16 0.15 0.18 0.26 0.32 0.33 0.35 0.38 0.40 0.38 0.39 0.43 0.41 0.34 0.41 0.39 0.28 0.28 0.22 0.18 0.15 0.11 0.09 0.07 0.05 0.04 0.03 0.03 0.03 0.03
0.11 0.12 0.13 0.14 0.13 0.12 0.10 0.11 0.14 0.17 0.16 0.19 0.28 0.30 0.29 0.31 0.35 0.39 0.43 0.46 0.47 0.44 0.49 0.49 0.31 0.27 0.22 0.27 0.23 0.15 0.11 0.10 0.08 0.06 0.05 0.03 0.03 0.03
0.10 0.09 0.10 0.13 0.12 0.11 0.10 0.15 0.21 0.24 0.13 0.11 0.16 0.23 0.25 0.28 0.30 0.36 0.52 0.65 0.61 0.46 0.47 0.52 0.41 0.34 0.29 0.31 0.27 0.19 0.15 0.13 0.09 0.07 0.07 0.07 0.07 0.07
0.09 0.11 0.09 0.09 0.08 0.07 0.10 0.17 0.25 0.26 0.24 0.28 0.36 0.39 0.42 0.49 0.45 0.48 0.62 0.69 0.67 0.63 0.52 0.54 0.51 0.47 0.44 0.32 0.30 0.29 0.28 0.23 0.15 0.13 0.10 0.10 0.13 0.16
0.12 0.18 0.17 0.09 0.05 0.05 0.08 0.14 0.20 0.18 0.26 0.42 0.50 0.51 0.52 0.57 0.55 0.50 0.57 0.65 0.72 0.78 0.61 0.58 0.59 0.58 0.61 0.45 0.28 0.27 0.31 0.36 0.37 0.37 0.31 0.23 0.19 0.19
0.17 0.19 0.18 0.10 0.07 0.10 0.11 0.15 0.17 0.24 0.39 0.51 0.55 0.54 0.51 0.52 0.51 0.47 0.49 0.55 0.64 0.67 0.60 0.59 0.66 0.66 0.60 0.50 0.38 0.28 0.32 0.42 0.54 0.65 0.61 0.49 0.35 0.28
0.13 0.12 0.12 0.13 0.15 0.26 0.24 0.22 0.28 0.43 0.52 0.56 0.58 0.55 0.47 0.42 0.39 0.38 0.41 0.50 0.57 0.51 0.42 0.42 0.54 0.54 0.52 0.51 0.48 0.42 0.38 0.40 0.55 0.70 0.75 0.69 0.57 0.43
0.11 0.14 0.22 0.28 0.32 0.39 0.43 0.48 0.50 0.50 0.47 0.53 0.54 0.47 0.36 0.32 0.33 0.34 0.40 0.46 0.54 0.52 0.38 0.32 0.37 0.42 0.47 0.43 0.43 0.45 0.42 0.51 0.58 0.68 0.80 0.84 0.71 0.51
0.08 0.20 0.35 0.42 0.47 0.51 0.54 0.57 0.59 0.52 0.47 0.47 0.46 0.43 0.37 0.34 0.32 0.29 0.34 0.38 0.46 0.48 0.41 0.33 0.32 0.32 0.30 0.30 0.37 0.40 0.40 0.49 0.62 0.69 0.79 0.92 0.89 0.66
0.13 0.29 0.36 0.39 0.43 0.44 0.44 0.48 0.52 0.51 0.44 0.40 0.40 0.38 0.34 0.34 0.34 0.32 0.32 0.37 0.44 0.41 0.36 0.31 0.27 0.26 0.26 0.26 0.35 0.41 0.43 0.56 0.67 0.66 0.63 0.78 0.98 0.87
0.25 0.35 0.36 0.38 0.41 0.38 0.37 0.42 0.46 0.42 0.36 0.33 0.32 0.30 0.28 0.27 0.29 0.30 0.30 0.30 0.31 0.30 0.27 0.22 0.21 0.24 0.28 0.36 0.44 0.58 0.59 0.59 0.59 0.58 0.58 0.68 0.92 0.92
0.32 0.33 0.32 0.34 0.38 0.38 0.33 0.32 0.32 0.28 0.24 0.24 0.25 0.22 0.21 0.23 0.25 0.27 0.23 0.20 0.23 0.25 0.24 0.20 0.17 0.22 0.30 0.37 0.58 0.74 0.70 0.52 0.46 0.56 0.65 0.71 0.83 0.83
0.26 0.27 0.28 0.28 0.30 0.32 0.28 0.24 0.21 0.18 0.17 0.17 0.17 0.18 0.18 0.19 0.19 0.18 0.15 0.10 0.14 0.19 0.22 0.22 0.20 0.19 0.21 0.22 0.39 0.62 0.68 0.73 0.64 0.61 0.65 0.64 0.55 0.44
0.23 0.24 0.22 0.19 0.22 0.21 0.17 0.16 0.16 0.14 0.12 0.12 0.12 0.12 0.12 0.13 0.13 0.11 0.10 0.10 0.11 0.11 0.15 0.17 0.16 0.15 0.17 0.21 0.36 0.52 0.55 0.51 0.51 0.56 0.58 0.44 0.29 0.30
0.21 0.20 0.18 0.16 0.15 0.14 0.12 0.10 0.09 0.09 0.09 0.11 0.10 0.08 0.07 0.07 0.06 0.04 0.04 0.04 0.04 0.04 0.06 0.10 0.10 0.10 0.11 0.13 0.19 0.26 0.26 0.22 0.16 0.18 0.34 0.45 0.40 0.44